#timestamp,LO_Frequency,Hit,StdDev 
1561431615.0,286046999.8,N
1561431616.0,286046999.8,N
1561431635.8,286047002.0,N
1561431655.6,286047002.1,N
1561431675.4,286047001.5,N
1561431695.3,286047004.1,Y
1561431715.1,286047001.7,P
1561431735.8,286047004.0,P
1561431755.7,286047003.0,N
1561431775.5,286047005.4,Y
1561431795.3,286047003.9,P
1561431815.2,286047004.0,P
1561431835.0,286047001.9,N
1561431835.9,286047001.9,N
1561431855.7,286047002.6,N
1561431875.6,286047000.0,N
1561431895.4,286047002.3,N
1561431915.2,286047002.1,N
1561431935.1,286047002.2,N
1561431936.0,286047002.2,N
1561431955.8,286047002.3,N
1561431975.6,286047002.8,N
1561431995.5,286046999.9,N
1561432015.3,286047002.4,N
1561432035.1,286047002.2,N
1561432055.8,286047002.2,N
1561432075.7,286047000.1,N
1561432095.5,286047000.2,N
1561432115.3,286046999.8,N
1561432135.2,286047002.5,N
1561432155.9,286047001.6,N
1561432175.7,286047004.2,Y
1561432195.6,286046999.7,P
1561432215.4,286047002.2,N
1561432235.2,286047002.7,N
1561432255.1,286047001.3,N
1561432256.0,286047001.3,N
1561432275.8,286047002.1,N
1561432295.6,286047001.3,N
1561432315.5,286047004.4,Y
1561432335.3,286047002.6,P
1561432355.1,286047002.6,P
1561432375.9,286047002.7,P
1561432395.7,286047002.3,Y
1561432415.5,286046999.3,P
1561432435.4,286046998.9,N
1561432455.2,286046999.4,N
1561432475.0,286046999.0,N
1561432475.9,286046999.0,N
1561432495.7,286046999.3,N
1561432515.6,286046999.3,N
1561432535.4,286046999.4,N
1561432555.2,286046998.7,N
1561432575.1,286046998.1,N
1561432576.0,286046998.1,N
1561432595.8,286046998.2,N
1561432615.6,286046998.6,N
1561432635.5,286047000.2,N
1561432655.3,286047001.0,N
1561432675.1,286047000.5,N
1561432695.9,286047000.1,N
1561432715.7,286047002.6,N
1561432735.5,286047000.0,N
1561432755.3,286046999.8,N
1561432775.2,286046999.7,N
1561432795.0,286047002.1,N
1561432795.9,286047002.1,N
1561432815.7,286047002.0,N
1561432835.6,286047002.3,N
1561432855.4,286047001.8,N
1561432875.2,286047004.1,N
1561432895.1,286047001.4,N
1561432896.0,286047001.4,N
1561432915.8,286047005.9,Y
1561432935.6,286047003.9,P
1561432955.5,286047003.6,N
1561432975.3,286047004.1,N
1561432995.1,286047003.0,N
1561433015.9,286047001.8,N
1561433035.7,286047001.5,N
1561433055.5,286047002.7,N
1561433075.3,286046999.7,N
1561433095.2,286047000.0,N
1561433115.0,286047000.2,N
1561433115.9,286047000.2,N
1561433135.7,286047001.3,N
1561433155.6,286047004.3,N
1561433175.4,286047003.4,N
1561433195.2,286047003.7,N
1561433215.1,286047004.0,N
1561433216.0,286047004.0,N
1561433235.8,286047004.0,N
1561433255.6,286047002.0,N
1561433275.5,286047001.7,N
1561433295.3,286047001.3,N
1561433315.1,286047003.6,N
1561433335.8,286047003.1,N
1561433355.7,286047005.5,Y
1561433375.5,286047001.3,P
1561433395.3,286047003.8,P
1561433415.2,286047003.3,P
1561433435.0,286047005.0,Y
1561433435.9,286047005.0,P
1561433455.7,286047004.2,P
1561433475.6,286047003.9,P
1561433495.4,286047001.4,N
1561433515.2,286047001.5,N
1561433535.1,286047000.0,N
1561433536.0,286047000.0,N
1561433555.8,286047000.4,N
1561433575.6,286047000.7,N
1561433595.5,286047000.5,N
1561433615.3,286046998.6,N
1561433635.1,286047000.0,N
1561433655.9,286047002.8,N
1561433675.7,286047002.6,N
1561433695.5,286047002.6,N
1561433715.3,286047002.0,N
1561433735.2,286047002.6,N
1561433755.0,286047002.7,N
1561433755.9,286047002.7,N
1561433775.7,286047000.0,N
1561433795.6,286047000.4,N
1561433815.4,286047000.9,N
1561433835.2,286047000.1,N
1561433855.1,286047000.1,N
1561433856.0,286047000.1,N
1561433875.8,286047000.2,N
1561433895.6,286047000.3,N
1561433915.5,286047000.8,N
1561433935.3,286047000.8,N
1561433955.1,286047000.7,N
1561433975.8,286047002.8,N
1561433995.7,286047002.3,N
1561434015.5,286047002.6,N
1561434035.3,286047002.0,N
1561434055.2,286046999.7,N
1561434075.9,286047002.8,N
1561434095.7,286047000.0,N
1561434115.6,286047000.6,N
1561434135.4,286047000.8,N
1561434155.2,286046998.6,N
1561434175.1,286046998.6,N
1561434176.0,286046998.6,N
1561434195.8,286046998.8,N
1561434215.6,286046999.4,N
1561434235.4,286046998.8,N
1561434255.3,286046999.3,N
1561434275.1,286046999.4,N
1561434295.8,286046996.9,N
1561434315.7,286046997.0,N
1561434335.5,286046999.5,N
1561434355.3,286046999.6,N
1561434375.2,286046997.1,N
1561434395.9,286046997.1,N
1561434415.7,286046999.3,N
1561434435.6,286047001.1,N
1561434455.4,286046998.2,N
1561434475.2,286046998.1,N
1561434495.1,286046998.3,N
1561434496.0,286046998.3,N
1561434515.8,286046998.1,N
1561434535.6,286046998.8,N
1561434555.4,286046998.8,N
1561434575.3,286046999.3,N
1561434595.1,286046999.1,N
1561434615.8,286046999.3,N
1561434635.7,286046999.3,N
1561434655.5,286046999.3,N
1561434675.3,286046999.2,N
1561434695.2,286046997.2,N
1561434715.9,286046997.6,N
1561434735.7,286046995.4,Y
1561434755.6,286046996.6,P
1561434775.4,286046998.0,N
1561434795.2,286046997.3,P
1561434815.1,286046997.6,Y
1561434816.0,286046997.6,P
1561434835.8,286046999.3,P
1561434855.6,286046997.0,P
1561434875.5,286046999.6,N
1561434895.3,286046999.2,N
1561434915.1,286046999.0,N
1561434935.9,286046998.7,N
1561434955.7,286046999.3,N
1561434975.5,286046999.2,N
1561434995.3,286046999.1,N
1561435015.2,286046999.3,N
1561435035.0,286046998.8,N
1561435035.9,286046998.8,N
1561435055.7,286047001.2,N
1561435075.6,286046998.8,N
1561435095.4,286047000.8,N
1561435115.2,286047000.7,N
1561435135.1,286046998.8,N
1561435136.0,286046998.8,N
1561435155.8,286046999.0,N
1561435175.6,286046999.0,N
1561435195.5,286046998.9,N
